| time (UTC) | temp F | wind direction | speed MPH | gust MPH | rain 1hr in | rain 24hr in | rain mn in | humidity % | barometer mb |
| 20260505140519 | 77 | 150 | 0.0 | 0.0 | 0.00 | 1.26 | 1.26 | 95 | 976.1 |
| 20260505124932 | 79 | 147 | 0.0 | 0.0 | 0.00 | 1.26 | 1.26 | 93 | 975.2 |
| 20260505124429 | 79 | 147 | 0.0 | 0.0 | 0.00 | 1.26 | 1.26 | 91 | 975.1 |
| 20260505123925 | 79 | 147 | 0.0 | 0.0 | 0.00 | 1.26 | 1.26 | 91 | 974.8 |
| 20260505123422 | 80 | 147 | 0.0 | 0.0 | 0.00 | 1.26 | 1.26 | 91 | 975.1 |
| 20260505122918 | 79 | 147 | 0.0 | 0.0 | 0.00 | 1.26 | 1.26 | 89 | 974.7 |
| 20260505122416 | 79 | 147 | 0.0 | 0.0 | 0.00 | 1.26 | 1.26 | 89 | 974.8 |
| 20260505121912 | 79 | 147 | 0.0 | 0.0 | 0.00 | 1.26 | 1.26 | 89 | 974.7 |
| 20260505121409 | 80 | 147 | 0.0 | 0.0 | 0.00 | 1.26 | 1.26 | 88 | 974.8 |
| 20260505120905 | 80 | 147 | 0.0 | 0.0 | 0.00 | 1.26 | 1.26 | 88 | 974.7 |
| 20260505120402 | 80 | 147 | 0.0 | 0.0 | 0.00 | 1.26 | 1.26 | 87 | 974.5 |
| 20260505115900 | 80 | 147 | 0.0 | 0.0 | 0.00 | 1.26 | 1.26 | 87 | 974.4 |
| 20260505115357 | 80 | 147 | 0.0 | 0.0 | 0.00 | 1.26 | 1.26 | 86 | 974.3 |
| 20260505114855 | 80 | 147 | 0.0 | 0.0 | 0.00 | 1.26 | 1.26 | 86 | 974.3 |
| 20260505114351 | 80 | 147 | 0.0 | 0.0 | 0.00 | 1.26 | 1.26 | 86 | 974.4 |
| 20260505113848 | 81 | 147 | 0.0 | 0.0 | 0.00 | 1.26 | 1.26 | 85 | 974.5 |
| 20260505113344 | 81 | 147 | 0.0 | 0.0 | 0.00 | 1.26 | 1.26 | 84 | 974.4 |
| 20260505112840 | 81 | 147 | 0.0 | 0.0 | 0.00 | 1.26 | 1.26 | 83 | 974.2 |
| 20260505112338 | 81 | 147 | 0.0 | 0.0 | 0.00 | 1.26 | 1.26 | 83 | 974.3 |
| 20260505111833 | 82 | 147 | 0.0 | 0.0 | 0.00 | 1.26 | 1.26 | 83 | 974.2 |
| 20260505111329 | 82 | 147 | 0.0 | 0.0 | 0.00 | 1.26 | 1.26 | 82 | 974.2 |
| 20260505110825 | 82 | 147 | 0.0 | 0.0 | 0.00 | 1.26 | 1.26 | 82 | 974.2 |
| 20260505110323 | 82 | 147 | 0.0 | 0.0 | 0.00 | 1.26 | 1.26 | 82 | 974.0 |
| 20260505101757 | 84 | 147 | 0.0 | 0.0 | 0.00 | 1.26 | 1.26 | 81 | 974.4 |
| 20260505101253 | 84 | 147 | 0.0 | 0.0 | 0.00 | 1.26 | 1.26 | 81 | 974.4 |
| 20260505100749 | 84 | 147 | 0.0 | 0.0 | 0.00 | 1.26 | 1.26 | 81 | 974.5 |
| 20260505100246 | 84 | 147 | 0.0 | 0.0 | 0.00 | 1.26 | 1.26 | 81 | 974.4 |
| 20260505095741 | 84 | 147 | 0.0 | 0.0 | 0.00 | 1.26 | 1.26 | 82 | 974.3 |
| 20260505095240 | 84 | 147 | 0.0 | 0.0 | 0.00 | 1.26 | 1.26 | 81 | 974.5 |
| 20260505094735 | 84 | 147 | 0.0 | 0.0 | 0.00 | 1.26 | 1.26 | 81 | 974.9 |
| 20260505094232 | 84 | 147 | 0.0 | 0.0 | 0.00 | 1.26 | 1.26 | 81 | 974.6 |
| 20260505093728 | 84 | 147 | 0.0 | 0.0 | 0.00 | 1.26 | 1.26 | 80 | 974.7 |
| 20260505093226 | 85 | 147 | 0.0 | 0.0 | 0.00 | 1.26 | 1.26 | 79 | 974.7 |
| 20260505092722 | 85 | 147 | 0.0 | 0.0 | 0.00 | 1.26 | 1.26 | 80 | 974.7 |
| 20260505092221 | 85 | 147 | 0.0 | 0.0 | 0.00 | 1.26 | 1.26 | 79 | 975.0 |
| 20260505091718 | 86 | 147 | 0.0 | 0.0 | 0.00 | 1.26 | 1.26 | 77 | 974.9 |
| 20260505091216 | 86 | 147 | 0.0 | 0.0 | 0.00 | 1.26 | 1.26 | 77 | 975.1 |
| 20260505090713 | 87 | 140 | 0.0 | 0.0 | 0.00 | 1.26 | 1.26 | 76 | 975.4 |
| 20260505090211 | 87 | 140 | 0.0 | 0.0 | 0.00 | 1.26 | 1.26 | 77 | 975.1 |
| 20260505085708 | 88 | 139 | 0.0 | 0.0 | 0.00 | 1.26 | 1.26 | 76 | 975.2 |
| 20260505085207 | 87 | 140 | 0.0 | 0.0 | 0.00 | 1.26 | 1.26 | 78 | 975.1 |
| 20260505084704 | 87 | 139 | 0.0 | 0.0 | 0.00 | 1.26 | 1.26 | 77 | 975.1 |
| 20260505084203 | 87 | 140 | 0.0 | 0.0 | 0.00 | 1.26 | 1.26 | 73 | 975.1 |
| 20260505083659 | 88 | 139 | 0.0 | 0.0 | 0.00 | 1.26 | 1.26 | 75 | 975.4 |
| 20260505083155 | 87 | 139 | 0.0 | 0.0 | 0.00 | 1.26 | 1.26 | 74 | 975.5 |
| 20260505082651 | 87 | 102 | 0.0 | 0.0 | 0.00 | 1.26 | 1.26 | 77 | 975.4 |
| 20260505082148 | 87 | 335 | 0.0 | 0.0 | 0.00 | 1.26 | 1.26 | 74 | 975.4 |
| 20260505081644 | 88 | 227 | 0.0 | 0.0 | 0.00 | 1.26 | 1.26 | 77 | 975.5 |
| 20260505081142 | 87 | 208 | 0.0 | 1.0 | 0.00 | 1.26 | 1.26 | 78 | 975.7 |
| 20260505080639 | 86 | 216 | 0.0 | 0.0 | 0.00 | 1.26 | 1.26 | 81 | 975.6 |
| 20260505080135 | 85 | 218 | 0.0 | 0.0 | 0.00 | 1.26 | 1.26 | 84 | 975.5 |
| 20260505075631 | 85 | 222 | 0.0 | 0.0 | 0.00 | 1.26 | 1.26 | 85 | 975.4 |
| 20260505075128 | 84 | 229 | 0.0 | 0.0 | 0.00 | 1.26 | 1.26 | 84 | 975.6 |
| 20260505074625 | 84 | 229 | 0.0 | 0.0 | 0.00 | 1.26 | 1.26 | 84 | 975.9 |
| 20260505074122 | 84 | 229 | 0.0 | 0.0 | 0.00 | 1.26 | 1.26 | 84 | 975.9 |
| 20260505073620 | 84 | 229 | 0.0 | 0.0 | 0.00 | 1.26 | 1.26 | 83 | 976.3 |
| 20260505073118 | 85 | 229 | 0.0 | 0.0 | 0.00 | 1.26 | 1.26 | 83 | 976.2 |
| 20260505072613 | 85 | 229 | 0.0 | 0.0 | 0.00 | 1.26 | 1.26 | 80 | 976.3 |
| 20260505072110 | 85 | 229 | 0.0 | 0.0 | 0.00 | 1.26 | 1.26 | 81 | 976.7 |
| 20260505071605 | 85 | 229 | 0.0 | 0.0 | 0.00 | 1.26 | 1.26 | 81 | 976.9 |
| 20260505071103 | 85 | 224 | 0.0 | 0.0 | 0.00 | 1.26 | 1.26 | 81 | 976.7 |
| 20260505070600 | 86 | 226 | 0.0 | 0.0 | 0.00 | 1.26 | 1.26 | 79 | 976.9 |
| 20260505070056 | 86 | 217 | 0.0 | 0.0 | 0.00 | 1.26 | 1.26 | 83 | 976.9 |
| 20260505065552 | 86 | 217 | 0.0 | 0.0 | 0.00 | 1.26 | 1.26 | 83 | 976.9 |
| 20260505065049 | 86 | 217 | 0.0 | 0.0 | 0.00 | 1.26 | 1.26 | 83 | 977.0 |
| 20260505064546 | 86 | 221 | 0.0 | 0.0 | 0.00 | 1.26 | 1.26 | 81 | 977.2 |
| 20260505064045 | 86 | 221 | 0.0 | 0.0 | 0.00 | 1.26 | 1.26 | 81 | 977.2 |
| 20260505063542 | 86 | 220 | 0.0 | 0.0 | 0.00 | 1.26 | 1.26 | 79 | 977.1 |
| 20260505063037 | 86 | 217 | 0.0 | 0.0 | 0.00 | 1.26 | 1.26 | 76 | 977.6 |
| 20260505062534 | 86 | 210 | 0.0 | 0.0 | 0.00 | 1.26 | 1.26 | 75 | 977.3 |
| 20260505062031 | 87 | 214 | 0.0 | 0.0 | 0.00 | 1.26 | 1.26 | 76 | 977.8 |
| 20260505061529 | 88 | 225 | 0.0 | 0.0 | 0.00 | 1.26 | 1.26 | 76 | 977.6 |
| 20260505061027 | 88 | 296 | 0.0 | 0.0 | 0.00 | 1.26 | 1.26 | 76 | 977.8 |
| 20260505060524 | 89 | 220 | 0.0 | 1.0 | 0.00 | 1.26 | 1.26 | 72 | 978.2 |
| 20260505060020 | 89 | 209 | 0.0 | 0.0 | 0.00 | 1.26 | 1.26 | 73 | 978.1 |
| 20260505055516 | 88 | 214 | 0.0 | 1.0 | 0.00 | 1.26 | 1.26 | 71 | 978.5 |
| 20260505055013 | 88 | 237 | 0.0 | 1.0 | 0.00 | 1.26 | 1.26 | 75 | 978.4 |
| 20260505054510 | 88 | 234 | 0.0 | 0.0 | 0.00 | 1.26 | 1.26 | 74 | 978.4 |
| 20260505054008 | 86 | 252 | 0.0 | 0.0 | 0.00 | 1.26 | 1.26 | 74 | 978.5 |
| 20260505053505 | 86 | 226 | 0.0 | 0.0 | 0.00 | 1.26 | 1.26 | 72 | 978.9 |
| 20260505053001 | 86 | 230 | 0.0 | 0.0 | 0.00 | 1.26 | 1.26 | 75 | 978.9 |
| 20260505052459 | 86 | 182 | 0.0 | 0.0 | 0.00 | 1.26 | 1.26 | 76 | 979.1 |
| 20260505051956 | 86 | 217 | 0.0 | 0.0 | 0.00 | 1.26 | 1.26 | 79 | 979.1 |
| 20260505051453 | 86 | 256 | 1.0 | 1.0 | 0.00 | 1.26 | 1.26 | 78 | 979.2 |
| 20260505050951 | 86 | 263 | 0.0 | 1.0 | 0.00 | 1.26 | 1.26 | 77 | 979.2 |
| 20260505050449 | 85 | 236 | 0.0 | 0.0 | 0.00 | 1.26 | 1.26 | 78 | 979.4 |
| 20260505041416 | 82 | 241 | 1.0 | 1.0 | 0.00 | 1.26 | 1.26 | 84 | 980.1 |
| 20260505040913 | 81 | 243 | 0.0 | 1.0 | 0.00 | 1.26 | 1.26 | 82 | 979.9 |
| 20260505040411 | 81 | 227 | 0.0 | 0.0 | 0.00 | 1.26 | 1.26 | 88 | 980.1 |
| 20260505035908 | 80 | 231 | 0.0 | 0.0 | 0.00 | 1.26 | 1.26 | 90 | 980.2 |
| 20260505035404 | 79 | 236 | 0.0 | 0.0 | 0.00 | 1.26 | 1.26 | 87 | 980.3 |
| 20260505034901 | 80 | 235 | 0.0 | 0.0 | 0.00 | 1.26 | 1.26 | 88 | 980.3 |
| 20260505034357 | 80 | 228 | 0.0 | 0.0 | 0.00 | 1.26 | 1.26 | 87 | 980.4 |
| 20260505033855 | 80 | 228 | 0.0 | 0.0 | 0.00 | 1.26 | 1.26 | 90 | 980.6 |
| 20260505033351 | 79 | 225 | 0.0 | 0.0 | 0.00 | 1.26 | 1.26 | 89 | 980.4 |
| 20260505032850 | 78 | 185 | 0.0 | 0.0 | 0.00 | 1.26 | 1.26 | 92 | 980.5 |
| 20260505032346 | 78 | 229 | 0.0 | 0.0 | 0.00 | 1.26 | 1.26 | 92 | 980.4 |
| 20260505031843 | 78 | 229 | 0.0 | 0.0 | 0.00 | 1.26 | 1.26 | 93 | 980.7 |
| 20260505031339 | 77 | 252 | 0.0 | 0.0 | 0.00 | 1.26 | 1.26 | 90 | 980.6 |
| 20260505030837 | 77 | 224 | 0.0 | 0.0 | 0.00 | 1.26 | 1.26 | 93 | 980.8 |
| 20260505030332 | 77 | 217 | 0.0 | 0.0 | 0.00 | 1.26 | 1.26 | 93 | 980.8 |
| 20260505025828 | 76 | 204 | 0.0 | 0.0 | 0.00 | 1.26 | 1.26 | 95 | 980.9 |
| 20260505025326 | 76 | 184 | 0.0 | 1.0 | 0.00 | 1.26 | 1.26 | 93 | 980.9 |
| 20260505024824 | 76 | 230 | 0.0 | 0.0 | 0.00 | 1.26 | 1.26 | 93 | 981.0 |
| 20260505024322 | 76 | 223 | 0.0 | 0.0 | 0.00 | 1.26 | 1.26 | 96 | 980.8 |
| 20260505023819 | 75 | 192 | 0.0 | 0.0 | 0.00 | 1.26 | 1.26 | 98 | 980.7 |
| 20260505023315 | 74 | 190 | 0.0 | 0.0 | 0.00 | 1.26 | 1.26 | 99 | 980.7 |
| 20260505022813 | 74 | 180 | 0.0 | 0.0 | 0.00 | 1.26 | 1.26 | 97 | 980.6 |
| 20260505022310 | 74 | 260 | 0.0 | 0.0 | 0.00 | 1.26 | 1.26 | 97 | 980.8 |
| 20260505021807 | 74 | 254 | 0.0 | 0.0 | 0.00 | 1.26 | 1.26 | 98 | 980.7 |
| 20260505021303 | 74 | 263 | 0.0 | 1.0 | 0.00 | 1.26 | 1.26 | 98 | 980.5 |
| 20260505020759 | 74 | 252 | 0.0 | 0.0 | 0.00 | 1.26 | 1.26 | 99 | 980.6 |
| 20260505020255 | 74 | 223 | 0.0 | 1.0 | 0.00 | 1.26 | 1.26 | 99 | 980.5 |
| 20260505015752 | 74 | 242 | 0.0 | 1.0 | 0.00 | 1.26 | 1.26 | 99 | 980.6 |
| 20260505015249 | 73 | 210 | 0.0 | 0.0 | 0.00 | 1.26 | 1.26 | 99 | 980.6 |
| 20260505014746 | 73 | 127 | 0.0 | 1.0 | 0.00 | 1.26 | 1.26 | 99 | 980.6 |
| 20260505014244 | 73 | 116 | 0.0 | 2.0 | 0.00 | 1.26 | 1.26 | 99 | 980.7 |
| 20260505013739 | 72 | 206 | 0.0 | 1.0 | 0.00 | 1.26 | 1.26 | 99 | 980.8 |
| 20260505013237 | 73 | 203 | 0.0 | 0.0 | 0.00 | 1.26 | 1.26 | 99 | 980.7 |
| 20260505012735 | 73 | 214 | 1.0 | 2.0 | 0.00 | 1.26 | 1.26 | 99 | 980.4 |
| 20260505012232 | 73 | 192 | 0.0 | 0.0 | 0.00 | 1.26 | 1.26 | 99 | 980.3 |
| 20260505011728 | 75 | 121 | 0.0 | 1.0 | 0.00 | 1.26 | 1.26 | 99 | 980.6 |
| 20260505011225 | 73 | 194 | 0.0 | 0.0 | 0.00 | 1.26 | 1.26 | 99 | 980.5 |
| 20260505010721 | 73 | 203 | 0.0 | 0.0 | 0.00 | 1.26 | 1.26 | 99 | 980.4 |
| 20260505010217 | 72 | 203 | 0.0 | 0.0 | 0.00 | 1.26 | 1.26 | 99 | 980.3 |
| 20260505005714 | 72 | 206 | 0.0 | 0.0 | 0.00 | 1.26 | 1.26 | 99 | 980.5 |
| 20260505005211 | 71 | 122 | 0.0 | 3.0 | 0.00 | 1.26 | 1.26 | 99 | 980.2 |
| 20260505004708 | 72 | 167 | 0.0 | 0.0 | 0.00 | 1.26 | 1.26 | 99 | 980.2 |
| 20260505004204 | 72 | 172 | 0.0 | 0.0 | 0.00 | 1.26 | 1.26 | 99 | 980.2 |
| 20260505003702 | 71 | 179 | 0.0 | 0.0 | 0.00 | 1.26 | 1.26 | 99 | 980.0 |
| 20260505003200 | 71 | 170 | 0.0 | 1.0 | 0.00 | 1.26 | 1.26 | 99 | 979.8 |
| 20260505002655 | 71 | 117 | 1.0 | 2.0 | 0.00 | 1.26 | 1.26 | 99 | 979.9 |
| 20260505002153 | 71 | 178 | 0.0 | 2.0 | 0.00 | 1.26 | 1.26 | 99 | 979.9 |
| 20260505001650 | 70 | 197 | 0.0 | 1.0 | 0.00 | 1.26 | 1.26 | 99 | 979.6 |
| 20260505001148 | 70 | 233 | 0.0 | 0.0 | 0.00 | 1.26 | 1.26 | 99 | 979.6 |
| 20260505000645 | 71 | 75 | 2.0 | 2.0 | 0.00 | 1.26 | 1.26 | 99 | 979.5 |
| 20260505000143 | 70 | 235 | 0.0 | 0.0 | 0.00 | 1.26 | 1.26 | 99 | 979.6 |
| 20260504235638 | 70 | 231 | 0.0 | 0.0 | 0.00 | 1.26 | 1.26 | 99 | 979.5 |
| 20260504235135 | 70 | 175 | 0.0 | 0.0 | 0.00 | 1.26 | 1.26 | 99 | 979.2 |
| 20260504234633 | 70 | 184 | 0.0 | 1.0 | 0.00 | 1.26 | 1.26 | 99 | 979.3 |
| 20260504234130 | 70 | 152 | 0.0 | 0.0 | 0.00 | 1.26 | 1.26 | 99 | 979.5 |
| 20260504233625 | 70 | 155 | 0.0 | 0.0 | 0.00 | 1.26 | 1.26 | 99 | 979.3 |
| 20260504233121 | 70 | 209 | 0.0 | 0.0 | 0.00 | 1.26 | 1.26 | 99 | 979.1 |
| 20260504232620 | 70 | 221 | 0.0 | 0.0 | 0.00 | 1.26 | 1.26 | 99 | 979.0 |
| 20260504232116 | 70 | 221 | 0.0 | 0.0 | 0.00 | 1.26 | 1.26 | 99 | 979.1 |
| 20260504231613 | 70 | 221 | 0.0 | 0.0 | 0.00 | 1.26 | 1.26 | 99 | 979.0 |
| 20260504231109 | 70 | 217 | 0.0 | 0.0 | 0.00 | 1.26 | 1.26 | 99 | 979.1 |
| 20260504230605 | 70 | 218 | 0.0 | 0.0 | 0.00 | 1.26 | 1.26 | 99 | 979.1 |
| 20260504230104 | 70 | 218 | 0.0 | 0.0 | 0.00 | 1.26 | 1.26 | 99 | 979.2 |
| 20260504225602 | 70 | 227 | 0.0 | 0.0 | 0.00 | 0.00 | 0.00 | 99 | 979.1 |
| 20260504225058 | 70 | 221 | 0.0 | 0.0 | 0.00 | 0.00 | 0.00 | 99 | 979.0 |
| 20260504224555 | 69 | 231 | 0.0 | 0.0 | 0.00 | 0.00 | 0.00 | 99 | 979.0 |
| 20260504224052 | 69 | 250 | 0.0 | 0.0 | 0.00 | 0.00 | 0.00 | 99 | 979.2 |
| 20260504223549 | 69 | 229 | 0.0 | 0.0 | 0.00 | 0.00 | 0.00 | 99 | 979.1 |
| 20260504223044 | 69 | 259 | 0.0 | 0.0 | 0.00 | 0.00 | 0.00 | 99 | 979.0 |
| 20260504222542 | 69 | 227 | 0.0 | 0.0 | 0.00 | 0.00 | 0.00 | 99 | 978.9 |
| 20260504222039 | 69 | 247 | 0.0 | 1.0 | 0.00 | 0.00 | 0.00 | 99 | 978.9 |
| 20260504221536 | 69 | 328 | 0.0 | 1.0 | 0.00 | 0.00 | 0.00 | 99 | 978.6 |
| 20260504221033 | 69 | 21 | 0.0 | 0.0 | 0.00 | 0.00 | 0.00 | 99 | 978.8 |
| 20260504220529 | 69 | 247 | 0.0 | 0.0 | 0.00 | 0.00 | 0.00 | 99 | 978.9 |
| 20260504220026 | 69 | 223 | 0.0 | 0.0 | 0.00 | 0.00 | 0.00 | 99 | 979.0 |
| 20260504215523 | 69 | 231 | 0.0 | 0.0 | 0.00 | 0.00 | 0.00 | 99 | 979.1 |
| 20260504215020 | 69 | 230 | 0.0 | 0.0 | 0.00 | 0.00 | 0.00 | 99 | 978.9 |
| 20260504214516 | 69 | 231 | 0.0 | 0.0 | 0.00 | 0.00 | 0.00 | 99 | 978.8 |
| 20260504214012 | 69 | 235 | 0.0 | 0.0 | 0.00 | 0.00 | 0.00 | 99 | 978.9 |
| 20260504213509 | 69 | 234 | 0.0 | 0.0 | 0.00 | 0.00 | 0.00 | 99 | 979.0 |
| 20260504213007 | 69 | 238 | 0.0 | 0.0 | 0.00 | 0.00 | 0.00 | 99 | 979.0 |
| 20260504212502 | 69 | 14 | 0.0 | 2.0 | 0.00 | 0.00 | 0.00 | 99 | 978.9 |
| 20260504212000 | 70 | 249 | 0.0 | 1.0 | 0.00 | 0.00 | 0.00 | 99 | 979.0 |
| 20260504211456 | 71 | 220 | 0.0 | 0.0 | 0.00 | 0.00 | 0.00 | 99 | 978.8 |
| 20260504210954 | 71 | 184 | 0.0 | 0.0 | 0.00 | 0.00 | 0.00 | 99 | 978.8 |
| 20260504210450 | 71 | 5 | 0.0 | 0.0 | 0.00 | 0.00 | 0.00 | 99 | 978.7 |
| 20260504205947 | 71 | 240 | 0.0 | 0.0 | 0.00 | 0.00 | 0.00 | 99 | 979.1 |
| 20260504205445 | 71 | 241 | 0.0 | 0.0 | 0.00 | 0.00 | 0.00 | 99 | 979.1 |
| 20260504204943 | 71 | 327 | 0.0 | 0.0 | 0.00 | 0.00 | 0.00 | 99 | 979.0 |
| 20260504204441 | 72 | 230 | 0.0 | 0.0 | 0.00 | 0.00 | 0.00 | 99 | 979.1 |
| 20260504203940 | 72 | 247 | 0.0 | 0.0 | 0.00 | 0.00 | 0.00 | 99 | 979.2 |
| 20260504203437 | 73 | 237 | 0.0 | 0.0 | 0.00 | 0.00 | 0.00 | 99 | 979.2 |
| 20260504202933 | 73 | 228 | 0.0 | 0.0 | 0.00 | 0.00 | 0.00 | 99 | 979.2 |
| 20260504202430 | 72 | 218 | 0.0 | 0.0 | 0.00 | 0.00 | 0.00 | 99 | 979.2 |
| 20260504201926 | 72 | 182 | 0.0 | 0.0 | 0.00 | 0.00 | 0.00 | 99 | 978.9 |
| 20260504201424 | 72 | 165 | 0.0 | 1.0 | 0.00 | 0.00 | 0.00 | 99 | 978.5 |
| 20260504200921 | 72 | 64 | 3.0 | 3.0 | 0.00 | 0.00 | 0.00 | 99 | 978.5 |
| 20260504200418 | 72 | 116 | 1.0 | 3.0 | 0.00 | 0.00 | 0.00 | 99 | 978.3 |
| 20260504195915 | 72 | 189 | 0.0 | 0.0 | 0.00 | 0.00 | 0.00 | 99 | 978.4 |
| 20260504195410 | 72 | 151 | 0.0 | 1.0 | 0.00 | 0.00 | 0.00 | 99 | 978.5 |
| 20260504194907 | 72 | 163 | 0.0 | 1.0 | 0.00 | 0.00 | 0.00 | 99 | 978.4 |
| 20260504194403 | 73 | 311 | 0.0 | 0.0 | 0.00 | 0.00 | 0.00 | 99 | 978.7 |
| 20260504193859 | 73 | 266 | 0.0 | 0.0 | 0.00 | 0.00 | 0.00 | 99 | 978.6 |
| 20260504193356 | 72 | 195 | 0.0 | 0.0 | 0.00 | 0.00 | 0.00 | 99 | 978.7 |
| 20260504192855 | 72 | 106 | 0.0 | 0.0 | 0.00 | 0.00 | 0.00 | 99 | 978.6 |
| 20260504192352 | 73 | 111 | 0.0 | 0.0 | 0.00 | 0.00 | 0.00 | 99 | 979.0 |
| 20260504191850 | 72 | 186 | 0.0 | 0.0 | 0.00 | 0.00 | 0.00 | 99 | 979.0 |
| 20260504191348 | 73 | 243 | 0.0 | 0.0 | 0.00 | 0.00 | 0.00 | 99 | 979.0 |
| 20260504190843 | 73 | 202 | 0.0 | 0.0 | 0.00 | 0.00 | 0.00 | 99 | 979.1 |
| 20260504190339 | 73 | 202 | 0.0 | 0.0 | 0.00 | 0.00 | 0.00 | 98 | 979.2 |
| 20260504185836 | 73 | 190 | 0.0 | 0.0 | 0.00 | 0.00 | 0.00 | 98 | 978.7 |
| 20260504185333 | 73 | 188 | 0.0 | 0.0 | 0.00 | 0.00 | 0.00 | 98 | 978.6 |
| 20260504184829 | 73 | 190 | 0.0 | 0.0 | 0.00 | 0.00 | 0.00 | 98 | 978.7 |
| 20260504184326 | 72 | 188 | 0.0 | 0.0 | 0.00 | 0.00 | 0.00 | 98 | 978.8 |
| 20260504183821 | 73 | 188 | 0.0 | 0.0 | 0.00 | 0.00 | 0.00 | 98 | 978.9 |
| 20260504183319 | 73 | 190 | 0.0 | 0.0 | 0.00 | 0.00 | 0.00 | 98 | 978.8 |
| 20260504182817 | 73 | 176 | 0.0 | 0.0 | 0.00 | 0.00 | 0.00 | 98 | 978.9 |
| 20260504182314 | 73 | 177 | 0.0 | 0.0 | 0.00 | 0.00 | 0.00 | 98 | 978.7 |
| 20260504181811 | 73 | 178 | 0.0 | 0.0 | 0.00 | 0.00 | 0.00 | 97 | 978.7 |
| 20260504181308 | 73 | 176 | 0.0 | 1.0 | 0.00 | 0.00 | 0.00 | 97 | 978.9 |
| 20260504180807 | 73 | 153 | 0.0 | 5.0 | 0.00 | 0.00 | 0.00 | 97 | 978.7 |
| 20260504180305 | 73 | 149 | 0.0 | 1.0 | 0.00 | 0.00 | 0.00 | 97 | 978.9 |
| 20260504175803 | 73 | 136 | 0.0 | 1.0 | 0.00 | 0.00 | 0.00 | 96 | 978.7 |
| 20260504175259 | 73 | 152 | 1.0 | 3.0 | 0.00 | 0.00 | 0.00 | 96 | 978.6 |
| 20260504174757 | 73 | 69 | 1.0 | 3.0 | 0.00 | 0.00 | 0.00 | 96 | 978.9 |
| 20260504174255 | 73 | 164 | 0.0 | 1.0 | 0.00 | 0.00 | 0.00 | 95 | 978.6 |
| 20260504173751 | 74 | 179 | 1.0 | 1.0 | 0.00 | 0.00 | 0.00 | 93 | 978.6 |
| 20260504173248 | 75 | 194 | 0.0 | 1.0 | 0.00 | 0.00 | 0.00 | 93 | 978.9 |
| 20260504172745 | 75 | 233 | 0.0 | 0.0 | 0.00 | 0.00 | 0.00 | 92 | 978.9 |
| 20260504172242 | 76 | 267 | 0.0 | 1.0 | 0.00 | 0.00 | 0.00 | 91 | 978.9 |
| 20260504171738 | 76 | 190 | 0.0 | 1.0 | 0.00 | 0.00 | 0.00 | 89 | 979.0 |
| 20260504171235 | 77 | 134 | 1.0 | 3.0 | 0.00 | 0.00 | 0.00 | 87 | 979.0 |
| 20260504170732 | 77 | 193 | 0.0 | 0.0 | 0.00 | 0.00 | 0.00 | 86 | 978.8 |
| 20260504170229 | 77 | 151 | 2.0 | 2.0 | 0.00 | 0.00 | 0.00 | 86 | 979.0 |
| 20260504160147 | 83 | 181 | 0.0 | 0.0 | 0.00 | 0.00 | 0.00 | 72 | 977.8 |
| 20260504151115 | 82 | 247 | 1.0 | 1.0 | 0.00 | 0.00 | 0.00 | 74 | 976.9 |
| 20260504150613 | 82 | 233 | 0.0 | 0.0 | 0.00 | 0.00 | 0.00 | 75 | 976.9 |
| 20260504150109 | 82 | 237 | 0.0 | 1.0 | 0.00 | 0.00 | 0.00 | 74 | 976.8 |